EN

Hourly Weather Krzeczyn

Today, 31 October, Saturday

Time Temperature Precipitation Wind Pressure Humidity
00:00 +11°C° 0.5 mm 4 mps 751 mmHg 95%
01:00 +12°C° 0 mm 5 mps 751 mmHg 97%
02:00 +11°C° 0.7 mm 4 mps 751 mmHg 97%
03:00 +11°C° 0.7 mm 3 mps 752 mmHg 97%
04:00 +11°C° 0.7 mm 3 mps 752 mmHg 96%
05:00 +10°C° 0.3 mm 2 mps 752 mmHg 96%
06:00 +10°C° 0.3 mm 2 mps 753 mmHg 95%
07:00 +10°C° 0 mm 2 mps 754 mmHg 92%
08:00 +10°C° 0 mm 2 mps 754 mmHg 90%
09:00 +10°C° 0 mm 2 mps 754 mmHg 88%
10:00 +10°C° 0 mm 2 mps 755 mmHg 86%
11:00 +10°C° 0 mm 2 mps 755 mmHg 82%
12:00 +12°C° 0 mm 2 mps 755 mmHg 78%
13:00 +13°C° 0 mm 2 mps 755 mmHg 74%
14:00 +12°C° 0 mm 2 mps 755 mmHg 76%
15:00 +12°C° 0 mm 2 mps 755 mmHg 77%
16:00 +12°C° 0 mm 2 mps 754 mmHg 79%
17:00 +10°C° 0 mm 2 mps 755 mmHg 81%
18:00 +9°C° 0 mm 2 mps 755 mmHg 84%
19:00 +9°C° 0 mm 2 mps 755 mmHg 86%
20:00 +8°C° 0 mm 3 mps 755 mmHg 87%
21:00 +8°C° 0 mm 3 mps 754 mmHg 87%
22:00 +8°C° 0 mm 3 mps 754 mmHg 88%
23:00 +7°C° 0 mm 3 mps 754 mmHg 88%

Tomorrow, 1 November, Sunday

Time Temperature Precipitation Wind Pressure Humidity
00:00 +7°C° 0 mm 3 mps 754 mmHg 88%
01:00 +7°C° 0 mm 3 mps 754 mmHg 88%
02:00 +6°C° 0 mm 4 mps 753 mmHg 88%
03:00 +6°C° 0 mm 4 mps 753 mmHg 88%
04:00 +6°C° 0 mm 4 mps 753 mmHg 88%
05:00 +6°C° 0 mm 4 mps 752 mmHg 89%
06:00 +6°C° 0 mm 4 mps 752 mmHg 91%
07:00 +7°C° 0 mm 3 mps 752 mmHg 92%
08:00 +8°C° 0 mm 4 mps 752 mmHg 88%
09:00 +11°C° 0 mm 4 mps 752 mmHg 83%
10:00 +12°C° 0 mm 4 mps 752 mmHg 78%
11:00 +13°C° 0 mm 4 mps 751 mmHg 76%
12:00 +14°C° 0 mm 4 mps 751 mmHg 74%
13:00 +14°C° 0 mm 4 mps 750 mmHg 72%
14:00 +14°C° 0.1 mm 4 mps 750 mmHg 76%
15:00 +13°C° 0.1 mm 4 mps 750 mmHg 80%
16:00 +12°C° 0.1 mm 4 mps 749 mmHg 84%
17:00 +12°C° 0.6 mm 4 mps 749 mmHg 86%
18:00 +12°C° 0.6 mm 4 mps 749 mmHg 88%
19:00 +10°C° 0.6 mm 5 mps 748 mmHg 90%
20:00 +11°C° 0.6 mm 4 mps 748 mmHg 91%
21:00 +11°C° 0.6 mm 4 mps 748 mmHg 91%
22:00 +11°C° 0.6 mm 4 mps 748 mmHg 91%
23:00 +12°C° 0.6 mm 3 mps 748 mmHg 91%

Day after tomorrow, 2 November, Monday

Time Temperature Precipitation Wind Pressure Humidity
00:00 +12°C° 0.6 mm 3 mps 747 mmHg 92%
01:00 +12°C° 0.6 mm 3 mps 747 mmHg 92%
02:00 +12°C° 0 mm 3 mps 747 mmHg 92%
03:00 +12°C° 0 mm 3 mps 747 mmHg 91%
04:00 +13°C° 0 mm 3 mps 748 mmHg 91%
05:00 +13°C° 0 mm 3 mps 748 mmHg 92%
06:00 +13°C° 0 mm 3 mps 748 mmHg 92%
07:00 +13°C° 0 mm 3 mps 748 mmHg 93%
08:00 +13°C° 0 mm 3 mps 749 mmHg 92%
09:00 +13°C° 0 mm 3 mps 749 mmHg 91%
10:00 +14°C° 0 mm 3 mps 749 mmHg 90%
11:00 +14°C° 0.5 mm 3 mps 749 mmHg 92%
12:00 +14°C° 0.5 mm 3 mps 749 mmHg 93%
13:00 +14°C° 0.5 mm 3 mps 749 mmHg 94%
14:00 +14°C° 0 mm 3 mps 749 mmHg 93%
15:00 +14°C° 0 mm 3 mps 749 mmHg 93%
16:00 +14°C° 0 mm 3 mps 749 mmHg 92%
17:00 +15°C° 0 mm 2 mps 749 mmHg 92%
18:00 +15°C° 0 mm 2 mps 749 mmHg 92%
19:00 +15°C° 0 mm 2 mps 750 mmHg 91%
20:00 +15°C° 0 mm 2 mps 750 mmHg 91%
21:00 +14°C° 0 mm 3 mps 750 mmHg 91%
22:00 +14°C° 0 mm 3 mps 750 mmHg 91%
23:00 +14°C° 0 mm 3 mps 750 mmHg 91%

3 November, Tuesday

Time Temperature Precipitation Wind Pressure Humidity
00:00 +14°C° 0 mm 3 mps 750 mmHg 90%
01:00 +14°C° 0 mm 3 mps 750 mmHg 90%
02:00 +14°C° 0 mm 3 mps 750 mmHg 90%
03:00 +14°C° 0 mm 3 mps 751 mmHg 89%
04:00 +14°C° 0 mm 3 mps 751 mmHg 89%
05:00 +15°C° 0 mm 2 mps 751 mmHg 89%
06:00 +15°C° 0 mm 2 mps 751 mmHg 89%
07:00 +15°C° 0 mm 2 mps 752 mmHg 89%
08:00 +14°C° 0 mm 3 mps 752 mmHg 87%
09:00 +14°C° 0 mm 4 mps 753 mmHg 84%
10:00 +14°C° 0 mm 5 mps 754 mmHg 82%
11:00 +14°C° 0 mm 5 mps 754 mmHg 76%
12:00 +14°C° 0 mm 5 mps 754 mmHg 70%
13:00 +14°C° 0 mm 4 mps 755 mmHg 64%
14:00 +14°C° 0 mm 4 mps 755 mmHg 67%
15:00 +13°C° 0 mm 3 mps 755 mmHg 70%
16:00 +14°C° 0 mm 2 mps 756 mmHg 73%
17:00 +13°C° 0 mm 2 mps 756 mmHg 73%
18:00 +12°C° 0 mm 2 mps 756 mmHg 73%
19:00 +12°C° 0 mm 2 mps 757 mmHg 72%
20:00 +10°C° 0 mm 2 mps 757 mmHg 73%
21:00 +10°C° 0 mm 2 mps 757 mmHg 74%
22:00 +10°C° 0 mm 2 mps 758 mmHg 74%
23:00 +10°C° 0 mm 2 mps 758 mmHg 74%

4 November, Wednesday

Time Temperature Precipitation Wind Pressure Humidity
00:00 +11°C° 0 mm 1 mps 758 mmHg 74%
01:00 +11°C° 0 mm 1 mps 758 mmHg 74%
02:00 +10°C° 0 mm 1 mps 758 mmHg 75%
03:00 +10°C° 0 mm 1 mps 758 mmHg 75%
04:00 +9°C° 0 mm 2 mps 758 mmHg 76%
05:00 +9°C° 0 mm 2 mps 758 mmHg 78%
06:00 +8°C° 0 mm 2 mps 759 mmHg 80%
07:00 +7°C° 0 mm 2 mps 759 mmHg 81%
08:00 +8°C° 0 mm 2 mps 759 mmHg 76%
09:00 +9°C° 0 mm 2 mps 759 mmHg 71%
10:00 +10°C° 0 mm 2 mps 760 mmHg 66%
11:00 +10°C° 0 mm 2 mps 760 mmHg 63%
12:00 +12°C° 0 mm 2 mps 760 mmHg 60%
13:00 +12°C° 0 mm 2 mps 760 mmHg 56%
14:00 +10°C° 0 mm 2 mps 760 mmHg 59%
15:00 +10°C° 0 mm 2 mps 760 mmHg 62%
16:00 +10°C° 0 mm 1 mps 760 mmHg 65%
17:00 +10°C° 0 mm 1 mps 760 mmHg 67%
18:00 +9°C° 0 mm 1 mps 761 mmHg 69%
19:00 +8°C° 0 mm 1 mps 761 mmHg 71%
20:00 +8°C° 0 mm 1 mps 761 mmHg 72%
21:00 +8°C° 0 mm 1 mps 762 mmHg 74%
22:00 +7°C° 0 mm 1 mps 762 mmHg 76%
23:00 +7°C° 0 mm 1 mps 762 mmHg 77%

5 November, Thursday

Time Temperature Precipitation Wind Pressure Humidity
00:00 +7°C° 0 mm 1 mps 762 mmHg 78%
01:00 +7°C° 0 mm 1 mps 762 mmHg 79%
02:00 +6°C° 0 mm 1 mps 763 mmHg 81%
03:00 +6°C° 0 mm 1 mps 763 mmHg 83%
04:00 +6°C° 0 mm 1 mps 763 mmHg 84%
05:00 +6°C° 0 mm 1 mps 763 mmHg 86%
06:00 +5°C° 0 mm 1 mps 763 mmHg 88%
07:00 +4°C° 0 mm 2 mps 764 mmHg 90%
08:00 +5°C° 0 mm 2 mps 764 mmHg 85%
09:00 +6°C° 0 mm 2 mps 764 mmHg 80%
10:00 +7°C° 0 mm 2 mps 764 mmHg 75%
11:00 +8°C° 0 mm 2 mps 764 mmHg 72%
12:00 +8°C° 0 mm 2 mps 764 mmHg 68%
13:00 +9°C° 0 mm 3 mps 764 mmHg 64%
14:00 +8°C° 0 mm 2 mps 764 mmHg 68%
15:00 +8°C° 0 mm 2 mps 764 mmHg 72%
16:00 +7°C° 0 mm 2 mps 764 mmHg 76%
17:00 +6°C° 0 mm 2 mps 765 mmHg 79%
18:00 +6°C° 0 mm 2 mps 765 mmHg 83%
19:00 +5°C° 0 mm 2 mps 765 mmHg 86%
20:00 +5°C° 0 mm 2 mps 766 mmHg 88%
21:00 +5°C° 0 mm 2 mps 766 mmHg 90%
22:00 +4°C° 0 mm 2 mps 766 mmHg 92%
23:00 +4°C° 0 mm 2 mps 766 mmHg 93%
Show more

We Need Your Consent

Meteoprog and our Service Providers may store and access personal data such as cookies, device identifiers or other similar technologies on your device and process such data to personalise content and ads, as well as provide social media features and to analyse the traffic.

  • Store and/or access information on your device

    Cookies, device identifiers or other information can be stored or accessed on your device for the purposes indicated above.

  • Personalised ads and content, ad and content measurement, audience insights, and products development

    Ads and content can be personalised based on a profile. More data can be added to better personalise ads and content. Ad and content performance can be measured. Insights about the audience who saw the ads and content can be derived. Such data can be used to develop or improve user’s experience, systems and software.

By clicking ‘I Agree’ you will allow the use of indicated cookies, device identifiers, web beacons or other similar technologies. Your settings can be changed in the browser on your device.

For certain purposes, legitimate interests may be relied on, rather than consent. You can read more about this in our Privacy and Cookie Policy.